User: anonymous   Login
Location: Tabor
(49.4170°N, 14.6670°E)
Time: 10:22:31
(UTC+02:00)
Language:

ISS - Orbit

View from above orbital plane
View from above orbital plane
View from above satellite
View from above satellite

Ground track
Ground track

The orbit data is extracted from the following two-line orbital elements,

1 25544U 98067A   21164.04547793  .00000758  00000-0  21937-4 0  9999
2 25544  51.6446   3.2116 0003497  90.7552  45.6437 15.48977591287958
Epoch (UTC): 13 June 2021 01:05:29
Eccentricity: 0.0003497
inclination: 51.6446°
perigee height: 417 km
apogee height: 422 km
right ascension of ascending node: 3.2116°
argument of perigee: 90.7552°
revolutions per day: 15.48977591
mean anomaly at epoch: 45.6437°
orbit number at epoch: 28795

The dashed part of the orbit path shows where the satellite is in the earth's shadow,  

DLR